Gadsden, AL

9:01 AM CDT on September 15, 2019 (GMT -0500)
Gadsden Municipal

Weather History for KGAD - May, 2019

Change the Weather History Date:

Friday, May 31, 2019

  Actual Average Record
Temperature  
Mean Temperature 75 °F -  
Max Temperature 88 °F 79 °F 94 °F (1945)
Min Temperature 62 °F 59 °F 42 °F (1947)
Cooling Degree Days 10    
Growing Degree Days 25 (Base 50)    
Moisture  
Dew Point 65 °F    
Average Humidity 73    
Maximum Humidity 100    
Minimum Humidity 40    
Precipitation  
Precipitation 0.00 in - - ()
Sea Level Pressure  
Sea Level Pressure 29.94 in    
Wind  
Wind Speed 4 mph ()    
Max Wind Speed 14 mph    
Max Gust Speed 22 mph    
Visibility 10.0 miles    
Events      
Averages and records for this station are not official NWS values.
T = Trace of Precipitation, MM = Missing Value Source: Averaged Metar Reports

Daily Weather History Graph

Daily Weather History Graph

Search for Another Location

Airport or City:

Astronomy

May. 31, 2019 Rise Set
Actual Time 5:34 AM CDT 7:49 PM CDT
Civil Twilight 5:06 AM CDT 8:18 PM CDT
Nautical Twilight 4:31 AM CDT 8:53 PM CDT
Astronomical Twilight 3:53 AM CDT 9:31 PM CDT
Moon 3:56 AM CDT (5/31) 5:08 PM CDT (5/31)
Length of Visible Light 15h 12m
Length of Day
14h 15m
Waning Crescent, 8% of the Moon is Illuminated
May 31
Waning Crescent
Jun 3
New
Jun 10
First Quarter
Jun 17
Full
Jun 25
Last Quarter

Hourly Weather History & Observations

Time (CDT) Temp. Heat Index Dew Point Humidity Pressure Visibility Wind Dir Wind Speed Gust Speed Precip Events Conditions
12:56 AM 71.1 °F - 71.1 °F 100% 29.91 in 10.0 mi Calm Calm - N/A   Scattered Clouds
1:56 AM 68.0 °F - 68.0 °F 100% 29.90 in 10.0 mi Calm Calm - N/A   Partly Cloudy
2:56 AM 66.9 °F - 66.9 °F 100% 29.91 in 10.0 mi Calm Calm - N/A   Clear
3:56 AM 66.0 °F - 66.0 °F 100% 29.92 in 10.0 mi Calm Calm - N/A   Clear
4:56 AM 71.1 °F - 71.1 °F 100% 29.93 in 10.0 mi WNW 8.1 mph - N/A   Clear
5:56 AM 72.0 °F - 71.1 °F 97% 29.95 in 10.0 mi WNW 5.8 mph - N/A   Overcast
6:56 AM 73.9 °F - 72.0 °F 93% 29.97 in 10.0 mi WNW 4.6 mph - N/A   Clear
7:56 AM 75.9 °F - 72.0 °F 87% 29.98 in 10.0 mi NW 8.1 mph - N/A   Clear
8:56 AM 79.0 °F - 68.0 °F 69% 29.98 in 10.0 mi Variable 4.6 mph - N/A   Partly Cloudy
9:56 AM 80.1 °F 82.3 °F 66.9 °F 64% 29.98 in 10.0 mi West 5.8 mph - N/A   Mostly Cloudy
10:17 AM 80.6 °F 82.7 °F 66.2 °F 61% 29.98 in 10.0 mi WNW 10.4 mph - N/A   Mostly Cloudy
10:56 AM 82.0 °F 84.1 °F 66.0 °F 58% 29.98 in 10.0 mi West 8.1 mph - N/A   Mostly Cloudy
11:56 AM 84.9 °F 86.6 °F 64.9 °F 51% 29.98 in 10.0 mi West 9.2 mph 17.3 mph N/A   Partly Cloudy
12:56 PM 84.9 °F 85.4 °F 62.1 °F 46% 29.96 in 10.0 mi West 11.5 mph 21.9 mph N/A   Scattered Clouds
1:56 PM 86.0 °F 86.8 °F 63.0 °F 46% 29.94 in 10.0 mi WNW 9.2 mph 17.3 mph N/A   Partly Cloudy
2:56 PM 86.0 °F 85.4 °F 59.0 °F 40% 29.93 in 10.0 mi West 13.8 mph - N/A   Partly Cloudy
3:56 PM 87.1 °F 86.7 °F 60.1 °F 40% 29.91 in 10.0 mi WNW 12.7 mph 17.3 mph N/A   Partly Cloudy
4:56 PM 87.1 °F 86.7 °F 60.1 °F 40% 29.90 in 10.0 mi NW 10.4 mph - N/A   Clear
5:56 PM 84.9 °F 84.4 °F 59.0 °F 41% 29.90 in 10.0 mi NW 6.9 mph - N/A   Partly Cloudy
6:56 PM 82.0 °F 82.4 °F 60.1 °F 47% 29.91 in 10.0 mi NW 5.8 mph - N/A   Clear
7:56 PM 75.9 °F - 61.0 °F 60% 29.92 in 10.0 mi Calm Calm - N/A   Clear
8:56 PM 69.1 °F - 64.9 °F 87% 29.93 in 10.0 mi Calm Calm - N/A   Clear
9:56 PM 64.9 °F - 64.9 °F 100% 29.95 in 10.0 mi SW 3.5 mph - N/A   Clear
10:56 PM 63.0 °F - 63.0 °F 100% 29.95 in 10.0 mi Calm Calm - N/A   Clear
11:56 PM 62.1 °F - 62.1 °F 100% 29.94 in 10.0 mi Calm Calm - N/A   Clear